DLH407 ULAM-ULAA

Flight info

Callsign DLH407
Flight time 1h 12m
Altitude 38000
Route SORIL L168 RIGNI M58 UNARI
Aircraft B38M/M-SDE1FGHILORVWXY/HB1

Departure

Time 2026-04-29 18:35
Airport Naryan Mar Airport (ULAM)

Arrival

Time 2026-04-29 19:47
Airport Talagi Airport (ULAA)
Time Latitude Longitude Altitude Speed Heading
2026-04-29 18:26 67.63367 53.08551 55 ft 0 kts 123°
2026-04-29 18:30 67.63367 53.08550 55 ft 1 kts 123°
2026-04-29 18:30 67.63374 53.08522 55 ft 2 kts 123°
2026-04-29 18:30 67.63384 53.08481 55 ft 3 kts 123°
2026-04-29 18:31 67.63395 53.08436 55 ft 3 kts 123°
2026-04-29 18:31 67.63407 53.08391 55 ft 2 kts 123°
2026-04-29 18:31 67.63406 53.08393 55 ft 0 kts 123°
2026-04-29 18:32 67.63399 53.08426 55 ft 1 kts 98°
2026-04-29 18:32 67.63409 53.08467 55 ft 5 kts 47°
2026-04-29 18:33 67.63451 53.08586 55 ft 13 kts 46°
2026-04-29 18:33 67.63526 53.08753 55 ft 9 kts 36°
2026-04-29 18:33 67.63599 53.08903 55 ft 17 kts 37°
2026-04-29 18:33 67.63733 53.09065 55 ft 25 kts 20°
2026-04-29 18:34 67.63856 53.09185 55 ft 9 kts 40°
2026-04-29 18:34 67.63866 53.09228 55 ft 1 kts 80°
2026-04-29 18:34 67.63866 53.09232 55 ft 0 kts 82°
2026-04-29 18:34 67.63867 53.09253 55 ft 7 kts 81°
2026-04-29 18:35 67.63921 53.10192 55 ft 109 kts 81°
2026-04-29 18:35 67.64070 53.12826 528 ft 172 kts 81°
2026-04-29 18:35 67.64500 53.15584 2037 ft 172 kts 58°
2026-04-29 18:35 67.65514 53.17563 3140 ft 191 kts 30°
2026-04-29 18:36 67.66790 53.18992 4324 ft 211 kts 22°
2026-04-29 18:36 67.68157 53.20930 5383 ft 238 kts 34°
2026-04-29 18:36 67.69190 53.24579 6481 ft 264 kts 61°
2026-04-29 18:36 67.69562 53.29475 7591 ft 284 kts 88°
2026-04-29 18:37 67.69072 53.34585 8718 ft 295 kts 118°
2026-04-29 18:37 67.67675 53.38450 10008 ft 293 kts 149°
2026-04-29 18:37 67.65742 53.40084 11127 ft 296 kts 179°
2026-04-29 18:37 67.63740 53.39206 12335 ft 293 kts 201°
2026-04-29 18:38 67.61907 53.36827 13478 ft 296 kts 216°
2026-04-29 18:38 67.60336 53.33329 14603 ft 298 kts 229°
2026-04-29 18:38 67.59157 53.28875 15684 ft 300 kts 244°
2026-04-29 18:38 67.58526 53.23660 16727 ft 303 kts 261°
2026-04-29 18:39 67.58610 53.18133 17728 ft 307 kts 280°
2026-04-29 18:39 67.58880 53.12627 18667 ft 312 kts 269°
2026-04-29 18:39 67.58527 53.06987 19608 ft 317 kts 258°
2026-04-29 18:39 67.57996 53.01346 19928 ft 319 kts 256°
2026-04-29 18:40 67.57390 52.95754 19984 ft 319 kts 255°
2026-04-29 18:40 67.56739 52.90195 19996 ft 319 kts 254°
2026-04-29 18:40 67.56065 52.84667 19997 ft 319 kts 253°
2026-04-29 18:40 67.55376 52.79144 19997 ft 319 kts 253°
2026-04-29 18:41 67.53263 52.62645 19997 ft 319 kts 252°
2026-04-29 18:41 67.52546 52.57107 20002 ft 328 kts 252°
2026-04-29 18:42 67.51800 52.51382 20004 ft 345 kts 252°
2026-04-29 18:42 67.51006 52.45303 20003 ft 363 kts 252°
2026-04-29 18:42 67.50170 52.38928 20001 ft 379 kts 252°
2026-04-29 18:42 67.49304 52.32351 19999 ft 386 kts 252°
2026-04-29 18:43 67.48423 52.25682 19998 ft 390 kts 252°
2026-04-29 18:43 67.47534 52.18978 19997 ft 391 kts 252°
2026-04-29 18:43 67.46643 52.12287 19997 ft 391 kts 252°
2026-04-29 18:43 67.45747 52.05588 19997 ft 391 kts 252°
2026-04-29 18:44 67.44850 51.98900 19997 ft 391 kts 252°
2026-04-29 18:44 67.43949 51.92209 19997 ft 391 kts 252°
2026-04-29 18:44 67.43047 51.85541 19997 ft 391 kts 252°
2026-04-29 18:44 67.42141 51.78869 19997 ft 391 kts 251°
2026-04-29 18:45 67.41232 51.72197 19997 ft 391 kts 251°
2026-04-29 18:45 67.40321 51.65539 19997 ft 391 kts 251°
2026-04-29 18:45 67.39404 51.58858 19997 ft 391 kts 251°
2026-04-29 18:45 67.38488 51.52210 19997 ft 391 kts 251°
2026-04-29 18:46 67.37568 51.45562 19997 ft 391 kts 251°
2026-04-29 18:46 67.36646 51.38917 19997 ft 391 kts 251°
2026-04-29 18:46 67.35720 51.32279 19997 ft 391 kts 251°
2026-04-29 18:46 67.34793 51.25645 19997 ft 391 kts 251°
2026-04-29 18:47 67.33859 51.18996 19997 ft 391 kts 251°
2026-04-29 18:47 67.32926 51.12372 19997 ft 391 kts 251°
2026-04-29 18:47 67.32000 51.05830 19997 ft 391 kts 251°
2026-04-29 18:47 67.31061 50.99217 19997 ft 391 kts 251°
2026-04-29 18:48 67.30052 50.92652 20147 ft 394 kts 248°
2026-04-29 18:48 67.28987 50.86095 20913 ft 397 kts 249°
2026-04-29 18:48 67.27913 50.79459 21706 ft 402 kts 249°
2026-04-29 18:48 67.26827 50.72752 22458 ft 407 kts 249°
2026-04-29 18:49 67.25727 50.65978 23187 ft 411 kts 248°
2026-04-29 18:49 67.24612 50.59127 23889 ft 416 kts 248°
2026-04-29 18:49 67.23476 50.52175 24416 ft 425 kts 248°
2026-04-29 18:49 67.22310 50.45063 24871 ft 434 kts 248°
2026-04-29 18:50 67.21123 50.37852 25474 ft 439 kts 248°
2026-04-29 18:50 67.19920 50.30572 26078 ft 443 kts 248°
2026-04-29 18:50 67.18703 50.23236 26718 ft 445 kts 248°
2026-04-29 18:50 67.17485 50.15919 27516 ft 444 kts 248°
2026-04-29 18:51 67.16268 50.08632 28295 ft 442 kts 248°
2026-04-29 18:51 67.15048 50.01356 29054 ft 441 kts 248°
2026-04-29 18:51 67.13846 49.94222 29781 ft 439 kts 248°
2026-04-29 18:51 67.12630 49.87023 30499 ft 438 kts 248°
2026-04-29 18:52 67.11415 49.79860 31195 ft 437 kts 248°
2026-04-29 18:52 67.10200 49.72715 31869 ft 436 kts 248°
2026-04-29 18:52 67.08985 49.65606 32533 ft 434 kts 248°
2026-04-29 18:52 67.07769 49.58510 33181 ft 433 kts 248°
2026-04-29 18:53 67.06553 49.51444 33815 ft 432 kts 247°
2026-04-29 18:53 67.05749 49.46784 34224 ft 431 kts 247°
2026-04-29 18:53 67.04534 49.39761 34824 ft 430 kts 247°
2026-04-29 18:53 67.03320 49.32770 35406 ft 429 kts 247°
2026-04-29 18:54 67.01701 49.23485 35912 ft 434 kts 247°
2026-04-29 18:54 67.00463 49.16418 36275 ft 437 kts 247°
2026-04-29 18:54 66.99213 49.09304 36617 ft 440 kts 247°
2026-04-29 18:54 66.98378 49.04567 36822 ft 442 kts 247°
2026-04-29 18:55 66.97496 48.99572 37039 ft 444 kts 247°
2026-04-29 18:55 66.97060 48.97109 37144 ft 437 kts 247°
2026-04-29 18:55 66.95833 48.90194 37155 ft 419 kts 247°
2026-04-29 18:55 66.94650 48.83549 37151 ft 402 kts 247°
2026-04-29 18:56 66.93522 48.77237 37146 ft 381 kts 247°
2026-04-29 18:56 66.92450 48.71251 37146 ft 361 kts 247°
2026-04-29 18:56 66.91434 48.65594 37146 ft 341 kts 247°
2026-04-29 18:56 66.90471 48.60246 37128 ft 323 kts 247°
2026-04-29 18:57 66.89559 48.55184 37126 ft 305 kts 247°
2026-04-29 18:57 66.88702 48.50441 37122 ft 286 kts 247°
2026-04-29 18:57 66.87907 48.46049 37116 ft 267 kts 247°
2026-04-29 18:57 66.87146 48.41860 37112 ft 249 kts 247°
2026-04-29 18:58 66.86439 48.38000 37123 ft 242 kts 247°
2026-04-29 18:58 66.86319 48.37343 37130 ft 242 kts 247°
2026-04-29 18:58 66.85646 48.33612 37185 ft 247 kts 248°
2026-04-29 18:58 66.84948 48.29460 36926 ft 266 kts 249°
2026-04-29 18:59 66.84151 48.25060 36821 ft 279 kts 246°
2026-04-29 18:59 66.83291 48.20573 36925 ft 286 kts 246°
2026-04-29 18:59 66.82417 48.15946 36989 ft 295 kts 246°
2026-04-29 18:59 66.81516 48.11137 37007 ft 306 kts 246°
2026-04-29 19:00 66.80587 48.06154 37006 ft 318 kts 246°
2026-04-29 19:00 66.79639 48.01055 37007 ft 329 kts 246°
2026-04-29 19:00 66.78642 47.95705 37005 ft 342 kts 246°
2026-04-29 19:00 66.77607 47.90153 37006 ft 354 kts 246°
2026-04-29 19:01 66.76533 47.84408 37005 ft 367 kts 246°
2026-04-29 19:01 66.75419 47.78476 37002 ft 380 kts 245°
2026-04-29 19:01 66.74044 47.72637 37023 ft 392 kts 239°
2026-04-29 19:01 66.72576 47.66701 37067 ft 403 kts 240°
2026-04-29 19:02 66.71081 47.60588 37112 ft 414 kts 240°
2026-04-29 19:02 66.69551 47.54298 37152 ft 425 kts 240°
2026-04-29 19:02 66.67987 47.47860 37200 ft 436 kts 240°
2026-04-29 19:02 66.66384 47.41271 37344 ft 443 kts 240°
2026-04-29 19:03 66.64761 47.34619 37640 ft 445 kts 240°
2026-04-29 19:03 66.63134 47.27968 37955 ft 446 kts 240°
2026-04-29 19:03 66.59931 47.14934 37996 ft 430 kts 240°
2026-04-29 19:04 66.56782 47.02016 37980 ft 439 kts 242°
2026-04-29 19:04 66.53559 46.88986 37996 ft 440 kts 239°
2026-04-29 19:05 66.50268 46.76043 37996 ft 440 kts 239°
2026-04-29 19:05 66.46997 46.63075 37997 ft 440 kts 239°
2026-04-29 19:06 66.43725 46.50144 38158 ft 441 kts 239°
2026-04-29 19:07 66.38809 46.30871 37997 ft 439 kts 239°
2026-04-29 19:07 66.35514 46.18042 37997 ft 440 kts 239°
2026-04-29 19:08 66.32203 46.05228 37997 ft 440 kts 239°
2026-04-29 19:08 66.28877 45.92434 37998 ft 440 kts 239°
2026-04-29 19:09 66.25317 45.80064 38000 ft 441 kts 236°
2026-04-29 19:09 66.21824 45.67589 37891 ft 441 kts 233°
2026-04-29 19:09 66.19999 45.61669 37925 ft 421 kts 241°
2026-04-29 19:10 66.18637 45.55214 37993 ft 427 kts 243°
2026-04-29 19:10 66.15607 45.42445 37997 ft 438 kts 239°
2026-04-29 19:11 66.12294 45.29767 37996 ft 440 kts 238°
2026-04-29 19:11 66.08910 45.17177 37997 ft 440 kts 238°
2026-04-29 19:12 66.05505 45.04617 37996 ft 440 kts 238°
2026-04-29 19:12 66.02093 44.92107 37996 ft 440 kts 238°
2026-04-29 19:13 65.98672 44.79635 37991 ft 432 kts 238°
2026-04-29 19:13 65.95355 44.67605 37999 ft 434 kts 237°
2026-04-29 19:14 65.91925 44.55237 37996 ft 439 kts 237°
2026-04-29 19:14 65.88477 44.42872 37995 ft 439 kts 237°
2026-04-29 19:14 65.86763 44.36750 37888 ft 432 kts 237°
2026-04-29 19:15 65.85073 44.30722 37179 ft 428 kts 237°
2026-04-29 19:15 65.83352 44.24828 36397 ft 424 kts 236°
2026-04-29 19:15 65.81618 44.19090 35831 ft 415 kts 236°
2026-04-29 19:15 65.79930 44.13489 35423 ft 402 kts 236°
2026-04-29 19:16 65.78320 44.08150 35030 ft 391 kts 236°
2026-04-29 19:16 65.76732 44.02891 34597 ft 380 kts 236°
2026-04-29 19:16 65.75183 43.97776 34160 ft 371 kts 236°
2026-04-29 19:16 65.73671 43.92790 33733 ft 362 kts 236°
2026-04-29 19:17 65.72192 43.87926 33319 ft 353 kts 236°
2026-04-29 19:17 65.70751 43.83195 32915 ft 344 kts 236°
2026-04-29 19:17 65.69344 43.78587 32521 ft 336 kts 236°
2026-04-29 19:17 65.67964 43.74078 32144 ft 330 kts 236°
2026-04-29 19:18 65.66587 43.69586 31788 ft 333 kts 236°
2026-04-29 19:18 65.65668 43.66592 31542 ft 334 kts 236°
2026-04-29 19:18 65.63816 43.60573 31015 ft 332 kts 236°
2026-04-29 19:18 65.62434 43.56095 30619 ft 330 kts 236°
2026-04-29 19:19 65.61064 43.51663 30233 ft 327 kts 236°
2026-04-29 19:19 65.59722 43.47328 29854 ft 323 kts 236°
2026-04-29 19:19 65.58380 43.43004 29477 ft 319 kts 236°
2026-04-29 19:19 65.57053 43.38733 29103 ft 315 kts 236°
2026-04-29 19:20 65.55736 43.34506 28733 ft 313 kts 236°
2026-04-29 19:20 65.54426 43.30304 28366 ft 314 kts 236°
2026-04-29 19:20 65.53106 43.26076 27991 ft 315 kts 236°
2026-04-29 19:20 65.51786 43.21874 27582 ft 315 kts 235°
2026-04-29 19:21 65.50465 43.17678 27166 ft 312 kts 235°
2026-04-29 19:21 65.49160 43.13539 26799 ft 308 kts 235°
2026-04-29 19:21 65.47888 43.09511 26439 ft 304 kts 235°
2026-04-29 19:21 65.46616 43.05488 26075 ft 300 kts 235°
2026-04-29 19:22 65.45343 43.01471 25708 ft 297 kts 235°
2026-04-29 19:22 65.44103 42.97567 25354 ft 298 kts 235°
2026-04-29 19:22 65.42839 42.93593 24987 ft 298 kts 235°
2026-04-29 19:22 65.41585 42.89656 24619 ft 298 kts 235°
2026-04-29 19:23 65.40323 42.85700 24244 ft 295 kts 235°
2026-04-29 19:23 65.39078 42.81805 23874 ft 292 kts 235°
2026-04-29 19:23 65.37851 42.77975 23510 ft 288 kts 235°
2026-04-29 19:23 65.36638 42.74193 23149 ft 284 kts 235°
2026-04-29 19:24 65.35420 42.70472 22784 ft 285 kts 233°
2026-04-29 19:24 65.34086 42.66926 22384 ft 287 kts 231°
2026-04-29 19:24 65.32755 42.63387 22022 ft 285 kts 231°
2026-04-29 19:24 65.31435 42.59863 21668 ft 284 kts 231°
2026-04-29 19:25 65.30123 42.56357 21309 ft 282 kts 231°
2026-04-29 19:25 65.28819 42.52868 20948 ft 280 kts 231°
2026-04-29 19:25 65.27536 42.49443 20590 ft 278 kts 231°
2026-04-29 19:25 65.26249 42.46009 20230 ft 277 kts 231°
2026-04-29 19:26 65.24967 42.42597 19869 ft 275 kts 231°
2026-04-29 19:26 65.23695 42.39214 19510 ft 273 kts 231°
2026-04-29 19:26 65.22425 42.35839 19180 ft 271 kts 231°
2026-04-29 19:26 65.21177 42.32532 19055 ft 267 kts 231°
2026-04-29 19:27 65.19909 42.29251 18913 ft 271 kts 228°
2026-04-29 19:27 65.18503 42.26246 18715 ft 272 kts 225°
2026-04-29 19:27 65.17091 42.23253 18442 ft 271 kts 225°
2026-04-29 19:27 65.15689 42.20265 18112 ft 269 kts 225°
2026-04-29 19:28 65.14299 42.17291 17754 ft 267 kts 225°
2026-04-29 19:28 65.12927 42.14351 17388 ft 264 kts 226°
2026-04-29 19:28 65.11587 42.11478 17023 ft 262 kts 226°
2026-04-29 19:28 65.10240 42.08594 16654 ft 259 kts 226°
2026-04-29 19:29 65.08908 42.05743 16287 ft 257 kts 226°
2026-04-29 19:29 65.07583 42.02911 15924 ft 258 kts 225°
2026-04-29 19:29 65.06244 42.00056 15554 ft 258 kts 225°
2026-04-29 19:29 65.04911 41.97213 15184 ft 256 kts 225°
2026-04-29 19:30 65.03589 41.94400 14818 ft 254 kts 225°
2026-04-29 19:30 65.02298 41.91656 14461 ft 251 kts 225°
2026-04-29 19:30 65.01002 41.88906 14103 ft 249 kts 225°
2026-04-29 19:30 64.99717 41.86182 13741 ft 247 kts 225°
2026-04-29 19:31 64.98430 41.83458 13208 ft 252 kts 225°
2026-04-29 19:31 64.97108 41.80663 12620 ft 258 kts 225°
2026-04-29 19:31 64.95753 41.77804 12012 ft 264 kts 225°
2026-04-29 19:31 64.94366 41.74879 11388 ft 270 kts 225°
2026-04-29 19:32 64.92950 41.71898 10749 ft 276 kts 225°
2026-04-29 19:32 64.91506 41.68863 10097 ft 280 kts 225°
2026-04-29 19:32 64.90037 41.65783 9435 ft 285 kts 225°
2026-04-29 19:32 64.88545 41.62655 8761 ft 289 kts 224°
2026-04-29 19:33 64.87040 41.59504 8105 ft 291 kts 224°
2026-04-29 19:33 64.85522 41.56341 7542 ft 290 kts 224°
2026-04-29 19:33 64.84019 41.53220 7042 ft 286 kts 224°
2026-04-29 19:33 64.82565 41.50204 6618 ft 281 kts 224°
2026-04-29 19:34 64.81092 41.47153 6224 ft 274 kts 224°
2026-04-29 19:34 64.79677 41.44225 5842 ft 269 kts 224°
2026-04-29 19:34 64.78304 41.41391 5467 ft 264 kts 224°
2026-04-29 19:34 64.76934 41.38567 5090 ft 261 kts 224°
2026-04-29 19:35 64.75581 41.35782 4719 ft 257 kts 223°
2026-04-29 19:35 64.74243 41.33032 4354 ft 254 kts 223°
2026-04-29 19:35 64.72921 41.30317 4003 ft 251 kts 222°
2026-04-29 19:35 64.71635 41.27677 3762 ft 240 kts 222°
2026-04-29 19:36 64.70416 41.25179 3554 ft 227 kts 221°
2026-04-29 19:36 64.69261 41.22815 3366 ft 214 kts 221°
2026-04-29 19:36 64.68169 41.20582 3191 ft 203 kts 221°
2026-04-29 19:36 64.67303 41.18092 2975 ft 201 kts 241°
2026-04-29 19:37 64.67147 41.14850 2669 ft 206 kts 275°
2026-04-29 19:37 64.67279 41.13760 2572 ft 207 kts 285°
2026-04-29 19:37 64.68320 41.08778 2306 ft 205 kts 297°
2026-04-29 19:37 64.68972 41.05815 2232 ft 205 kts 298°
2026-04-29 19:38 64.69964 41.03474 2060 ft 208 kts 330°
2026-04-29 19:38 64.71369 41.03366 2008 ft 207 kts 15°
2026-04-29 19:38 64.72401 41.05606 1998 ft 208 kts 59°
2026-04-29 19:38 64.72466 41.08895 1996 ft 208 kts 104°
2026-04-29 19:39 64.71570 41.11414 2043 ft 205 kts 140°
2026-04-29 19:39 64.70367 41.13210 2031 ft 205 kts 149°
2026-04-29 19:39 64.69139 41.14821 2026 ft 197 kts 154°
2026-04-29 19:39 64.67898 41.15796 2010 ft 180 kts 163°
2026-04-29 19:40 64.66724 41.16453 1987 ft 166 kts 169°
2026-04-29 19:40 64.65663 41.16809 1997 ft 140 kts 172°
2026-04-29 19:40 64.64747 41.16960 1981 ft 129 kts 179°
2026-04-29 19:40 64.63876 41.16462 2005 ft 129 kts 194°
2026-04-29 19:41 64.63283 41.16382 1986 ft 129 kts 183°
2026-04-29 19:41 64.62388 41.16467 1996 ft 128 kts 178°
2026-04-29 19:41 64.61496 41.16507 1997 ft 128 kts 179°
2026-04-29 19:41 64.60311 41.16349 1984 ft 129 kts 187°
2026-04-29 19:42 64.59759 41.15763 1970 ft 131 kts 207°
2026-04-29 19:42 64.59356 41.14723 1996 ft 130 kts 229°
2026-04-29 19:42 64.58967 41.12119 1999 ft 129 kts 258°
2026-04-29 19:42 64.58990 41.10036 2005 ft 129 kts 273°
2026-04-29 19:43 64.59120 41.07972 2000 ft 128 kts 279°
2026-04-29 19:43 64.59162 41.05900 1993 ft 129 kts 269°
2026-04-29 19:43 64.59092 41.03824 1997 ft 128 kts 266°
2026-04-29 19:43 64.59046 41.01764 1997 ft 128 kts 267°
2026-04-29 19:44 64.59028 40.99678 1923 ft 129 kts 269°
2026-04-29 19:44 64.58983 40.97600 1784 ft 128 kts 265°
2026-04-29 19:44 64.58943 40.95561 1653 ft 128 kts 269°
2026-04-29 19:44 64.58980 40.93495 1512 ft 127 kts 273°
2026-04-29 19:45 64.59062 40.91441 1366 ft 127 kts 275°
2026-04-29 19:45 64.59160 40.89402 1219 ft 127 kts 276°
2026-04-29 19:45 64.59259 40.87359 1071 ft 127 kts 276°
2026-04-29 19:45 64.59359 40.85325 922 ft 126 kts 276°
2026-04-29 19:46 64.59458 40.83295 774 ft 126 kts 276°
2026-04-29 19:46 64.59557 40.81267 625 ft 126 kts 276°
2026-04-29 19:46 64.59656 40.79241 477 ft 125 kts 276°
2026-04-29 19:46 64.59754 40.77224 333 ft 125 kts 276°
2026-04-29 19:47 64.59852 40.75232 181 ft 125 kts 276°
2026-04-29 19:47 64.59948 40.73249 77 ft 117 kts 276°
2026-04-29 19:47 64.60029 40.71604 74 ft 66 kts 276°
2026-04-29 19:47 64.60036 40.71442 74 ft 1 kts 276°
2026-04-29 19:48 64.60032 40.71362 74 ft 6 kts 244°
2026-04-29 19:48 64.60015 40.71333 74 ft 5 kts 198°
2026-04-29 19:48 64.59921 40.71302 74 ft 16 kts 187°
2026-04-29 19:48 64.59817 40.71273 74 ft 2 kts 187°
2026-04-29 19:49 64.59796 40.71269 74 ft 7 kts 185°
2026-04-29 19:49 64.59729 40.71291 74 ft 10 kts 131°
2026-04-29 19:50 64.59722 40.71437 74 ft 12 kts 83°
2026-04-29 19:50 64.59727 40.71606 74 ft 5 kts 105°
2026-04-29 19:50 64.59698 40.71658 74 ft 6 kts 179°
2026-04-29 19:50 64.59671 40.71652 74 ft 0 kts 186°
2026-04-29 19:51 64.59670 40.71652 74 ft 0 kts 186°